Regional Weather Roundup
Issued by NWS New Orleans/Baton Rouge, LA

Home | Current Version | Previous Version | Graphics & Text | Print | Product List | Glossary On
Versions: 1 2 3 4 5 6 7 8 9 10 11 12 13 14 15 16 17 18 19 20 21 22 23 24 25 26 27 28 29 30 31 32 33 34 35 36 37 38 39 40 41 42 43 44 45 46 47 48 49 50
530
ASUS44 KLIX 222310
RWRLIX
NEW ORLEANS REGIONAL WEATHER ROUNDUP
NATIONAL WEATHER SERVICE NEW ORLEANS LA
600 PM CDT TUE APR 22 2014

NOTE: "FAIR" INDICATES FEW OR NO CLOUDS BELOW 12,000 FEET WITH NO
      SIGNIFICANT WEATHER AND/OR OBSTRUCTIONS TO VISIBILITY.
      SKY/WX - SKY CONDITION AND SIGNIFICANT WEATHER.
      TMP - AIR TEMPERATURE.     DP    - DEWPOINT TEMPERATURE.
      RH  - RELATIVE HUMIDITY.   PRES  - PRESSURE.
      HI  - HEAT INDEX.          WCI   - WIND CHILL INDEX.

*  THESE STATIONS ARE NOT NWS OR FAA STATIONS AND ARE NOT UNDER
   NWS QUALITY CONTROL.

LAZ038-040-048-061>063-065>067-069-230000-
SOUTHEAST LOUISIANA

CITY           SKY/WX    TMP DP  RH WIND       PRES   REMARKS
N.O. AUDUBON     N/A     78  67  69 MISG        N/A
N.O. INTL ARPT PTSUNNY   75  67  76 SW5       29.89S
N.O. LAKEFRONT MOSUNNY   74  67  78 W6        29.89F
N.O. DOWNTOWN* CLOUDY    77  63  61 W3        29.89F
SLIDELL        PTSUNNY   76  65  68 SW6       29.88S
BATON ROUGE    MOSUNNY   79  60  52 NW9       29.90F
BOOTHVILLE     CLOUDY    72  67  84 W12       29.90F
BELLE CHASSE   PTSUNNY   74  65  73 VRB5      29.89S
BOGALUSA*        N/A     77  62  60 N8        29.90S
GALLIANO*      PTCLDY    78  66  68 SW10      29.89F
NEW ROADS*       N/A     77  59  53 NW5       29.90F
GONZALES*      CLOUDY    79  62  55 NW6       29.89S
HAMMOND*       MOSUNNY   77  61  57 NW7       29.91S
HOUMA*         MOSUNNY   75  64  69 W12       29.90F
PORT FOURCHON* PTCLDY    73  68  83 W12G17    29.92F

$$

MSZ070-080>082-230000-
SOUTHERN MISSISSIPPI

CITY           SKY/WX    TMP DP  RH WIND       PRES   REMARKS
MCCOMB         MOSUNNY   75  61  61 N8        29.90F
GULFPORT       PTSUNNY   75  64  68 SW5       29.87S
BILOXI         PTSUNNY   71  67  87 SW12      29.87F
PASCAGOULA     PTSUNNY   72  66  81 SW8       29.88R
STENNIS ARPT*  PTSUNNY   75  64  69 W9        29.88S

$$

COASTAL OBSERVATIONS
LAKE AND NEARSHORE STATIONS

STATION/POSITION TIME  TEMP    WIND        PRES    WAVE
                       AIR SEA DIR/SP/G            HT/PER
                 (UTC) (F)     (DEG/KT/KT) (MB)    (FT/S)
PASCAGOULA       2300   71     250/  8/ 11 1011.2
WAVELAND YACHT   2300   75 72  270/  6/ 10 1010.8
GRAND ISLE       2300   74 72  280/  9/ 12 1013.0
SOUTHWEST PASS   2300   70 61  300/  7/ 12 1013.2
NEW CANAL        2300   76 69  270/  4/  6 1012.4
SHELL BEACH      2300   74 67  250/  8/ 10 1011.7

OFFSHORE STATIONS

STATION/POSITION TIME  TEMP    WIND        PRES    WAVE
                       AIR SEA DIR/SP/G            HT/PER
                 (UTC) (F)     (DEG/KT/KT) (MB)    (FT/S)
64 S DAUPHIN ISL 2213   70 70  260/ 10/ 12 1012.7

$$




USA.gov is the U.S. government's official web portal to all federal, state and local government web resources and services.